(169878) = 2002 RC131 = 2005 GC213

Discovered at Palomar on 2002-09-11 by NEAT.

Orbit

Orbit type: Main Belt

Note: WebGL enabled browser required.

epoch2023-09-13.0
epoch JD2460200.5
perihelion date2022-04-29.42383
perihelion JD2459698.92383
argument of perihelion (°)283.15877
ascending node (°)339.48596
inclination (°)5.17402
eccentricity0.0777894
perihelion distance (AU)2.7681341
Tisserand w.r.t. Jupiter3.2
ΔV w.r.t. Earth (km/sec)10.5
semimajor axis (AU)3.0016292
mean anomaly (°)95.06162
mean daily motion (°/day)0.18952580
aphelion distance (AU)3.235
period (years)5.2
P-vector [x]-0.12663097
P-vector [y]-0.87159307
P-vector [z]-0.47359277
Q-vector [x]0.99144635
Q-vector [y]-0.12642063
Q-vector [z]-0.03243391
absolute magnitude16.19
phase slope0.15
uncertainty0
referenceMPEC 2023-X152
observations used263
oppositions14
arc length (days)8705
first opposition used2000
last opposition used2023
residual rms (arc-secs)0.77
perturbers coarse indicatorM-v
perturbers precise indicator003Ek
first observation date used2000-02-06.0
last observation date used2023-12-07.0
computer nameMPCLINUX
JD of orbit computation2456612.708902
perihelion JD uncertainty (days)4.0102E-04
argument of perihelion uncertainty (°)9.5389E-05
ascending node uncertainty (°)6.5491E-05
inclination uncertainty (°)8.5361E-06
eccentricity uncertainty 7.8673E-08
perihelion distance uncertainty (AU)2.2677E-07
Minimum Orbit Intersection Distances (in AU)
for orbit epoch: 2460200.5, reference: E2023-XF2
Mercury2.30188
Venus2.0446
Earth1.75788
Mars1.25684
Jupiter1.84734
Saturn5.84553
Uranus15.3912
Neptune26.6949

Observations

269 total observations over interval: 2000 02 06.45585 – 2023 12 07.270670
These data are available for download (format description).

Date (UT) J2000 RA J2000 Dec Magn Location Ref
2000 02 06.45585 10 47 35.57 +08 39 20.0 20.4 V 691 – Steward Observatory, Kitt Peak-Spacewatch MPS 133099
2000 02 06.52496 10 47 32.70 +08 39 31.1 20.6 V 691 – Steward Observatory, Kitt Peak-Spacewatch MPS 133099
2000 02 06.54669 10 47 31.84 +08 39 34.5 20.7 V 691 – Steward Observatory, Kitt Peak-Spacewatch MPS 133099
2000 03 03.19810 10 27 08.23 +10 01 59.4 19.9   704 – Lincoln Laboratory ETS, New Mexico MPS 133099
2000 03 03.21141 10 27 07.51 +10 02 03.2 20.4   704 – Lincoln Laboratory ETS, New Mexico MPS 133099
2000 03 03.22466 10 27 06.88 +10 02 05.2 20.4   704 – Lincoln Laboratory ETS, New Mexico MPS 133099
2000 03 03.23791 10 27 06.12 +10 02 08.7 20.3   704 – Lincoln Laboratory ETS, New Mexico MPS 133099
2002 08 16.40934 23 50 57.41 +00 00 03.8 21.4 V 291 – LPL/Spacewatch II MPS 82984
2002 08 16.44555 23 50 56.34 +00 00 01.1 22.1 V 291 – LPL/Spacewatch II MPS 82984
2002 08 16.46609 23 50 55.64 -00 00 00.9 21.6 V 291 – LPL/Spacewatch II MPS 82984
2002 09 05.298590 23 37 55.791 -00 47 41.03 20.41 V 645 – Apache Point-Sloan Digital Sky Survey MPS 80117
2002 09 05.302062 23 37 55.622 -00 47 41.65 21.10   645 – Apache Point-Sloan Digital Sky Survey MPS 80117
2002 09 11.20286 23 33 15.35 -01 07 31.0 20.8   644 – Palomar Mountain/NEAT MPS 61765
2002 09 11.27132 23 33 11.93 -01 07 45.8 19.7   644 – Palomar Mountain/NEAT MPS 61765
2002 09 11.33682 23 33 08.64 -01 07 59.2 20.1   644 – Palomar Mountain/NEAT MPS 61765
2002 09 12.23820 23 32 25.27 -01 11 08.4 21.1   644 – Palomar Mountain/NEAT MPS 61765
2002 09 12.31674 23 32 21.39 -01 11 24.6 20.6   644 – Palomar Mountain/NEAT MPS 61765
2002 09 12.38727 23 32 17.88 -01 11 39.5 21.2   644 – Palomar Mountain/NEAT MPS 61765
2002 09 14.33280 23 30 43.77 -01 18 30.5 20.0   644 – Palomar Mountain/NEAT MPS 61765
2002 09 14.35366 23 30 42.71 -01 18 35.4 20.1   644 – Palomar Mountain/NEAT MPS 61765
2002 09 14.37461 23 30 41.69 -01 18 39.3 20.3   644 – Palomar Mountain/NEAT MPS 61765
2005 02 04.35482 09 42 02.66 +16 29 13.2 20.2 R G96 – Mt. Lemmon Survey MPS 133099
2005 02 04.36297 09 42 02.24 +16 29 14.3 19.7 R G96 – Mt. Lemmon Survey MPS 133099
2005 02 04.37091 09 42 01.82 +16 29 15.9 19.9 R G96 – Mt. Lemmon Survey MPS 133099
2005 02 04.37885 09 42 01.43 +16 29 17.4 19.1 R G96 – Mt. Lemmon Survey MPS 133099
2005 03 10.24214 09 15 10.44 +17 43 47.3 20.5 R G96 – Mt. Lemmon Survey MPS 133099
2005 03 10.25013 09 15 10.17 +17 43 47.6 20.7 R G96 – Mt. Lemmon Survey MPS 133099
2005 03 10.25815 09 15 09.89 +17 43 48.9 19.7 R G96 – Mt. Lemmon Survey MPS 133099
2005 03 10.26610 09 15 09.58 +17 43 48.4 20.2 R G96 – Mt. Lemmon Survey MPS 133099
2005 04 11.14384 09 08 12.28 +17 21 45.8   695 – Kitt Peak MPC 56113
2007 08 09.24800 22 45 07.65 -09 07 25.1   691 – Steward Observatory, Kitt Peak-Spacewatch MPS 212500
2007 08 09.26909 22 45 06.77 -09 07 28.1   691 – Steward Observatory, Kitt Peak-Spacewatch MPS 212500
2007 08 09.28674 22 45 06.06 -09 07 31.3   691 – Steward Observatory, Kitt Peak-Spacewatch MPS 212500
2007 08 23.23611 22 34 36.43 -09 46 41.0 19.8 V 691 – Steward Observatory, Kitt Peak-Spacewatch MPS 214392
2007 08 23.25376 22 34 35.57 -09 46 45.3 20.1 V 691 – Steward Observatory, Kitt Peak-Spacewatch MPS 214392
2007 08 23.27141 22 34 34.68 -09 46 48.6 20.0 V 691 – Steward Observatory, Kitt Peak-Spacewatch MPS 214392
2007 11 01.07193 22 06 14.86 -10 41 53.5 21.5 V G96 – Mt. Lemmon Survey MPS 223361
2007 11 01.07857 22 06 14.94 -10 41 52.8 21.4 V G96 – Mt. Lemmon Survey MPS 223361
2007 11 01.08514 22 06 15.04 -10 41 52.0 20.4 V G96 – Mt. Lemmon Survey MPS 223361
2007 11 01.09177 22 06 15.12 -10 41 51.6 22.0 V G96 – Mt. Lemmon Survey MPS 223361
2008 11 03.26876 03 36 48.39 +26 38 59.1 20.6 V 691 – Steward Observatory, Kitt Peak-Spacewatch MPS 264486
2008 11 03.28637 03 36 47.46 +26 38 57.6 20.7 V 691 – Steward Observatory, Kitt Peak-Spacewatch MPS 264486
2008 11 03.30400 03 36 46.55 +26 38 55.9 21.0 V 691 – Steward Observatory, Kitt Peak-Spacewatch MPS 264486
2008 11 07.27387 03 33 20.39 +26 31 43.2 20.8 V 691 – Steward Observatory, Kitt Peak-Spacewatch MPS 264486
2008 11 07.29153 03 33 19.42 +26 31 40.7 20.5 V 691 – Steward Observatory, Kitt Peak-Spacewatch MPS 264486
2008 11 07.30919 03 33 18.45 +26 31 38.9 20.9 V 691 – Steward Observatory, Kitt Peak-Spacewatch MPS 264486
2012 07 28.45863 21 31 22.712 -18 15 27.93 20.0 i F51 – Pan-STARRS 1, Haleakala MPS 428994
2012 07 28.46922 21 31 22.189 -18 15 29.36 20.0 i F51 – Pan-STARRS 1, Haleakala MPS 428994
2012 08 09.17511 21 21 34.10 -18 43 05.5 20.0 R H15 – ISON-NM Observatory, Mayhill MPS 429263
2012 08 09.19082 21 21 33.42 -18 43 07.6 20.1 R H15 – ISON-NM Observatory, Mayhill MPS 429263
2012 08 09.20615 21 21 32.60 -18 43 10.3 19.8 R H15 – ISON-NM Observatory, Mayhill MPS 429263
2012 08 09.22165 21 21 31.89 -18 43 11.0 20.0 R H15 – ISON-NM Observatory, Mayhill MPS 429263
2012 08 10.23090 21 20 39.52 -18 45 24.7 20.6 G G45 – Space Surveillance Telescope, Atom Site MPS 1606477
2012 08 10.28481 21 20 36.63 -18 45 31.5 20.2 G G45 – Space Surveillance Telescope, Atom Site MPS 1606477
2012 08 10.35552 21 20 32.90 -18 45 40.7 19.8 G G45 – Space Surveillance Telescope, Atom Site MPS 1606477
2012 08 10.39987 21 20 30.50 -18 45 45.6 20.0 G G45 – Space Surveillance Telescope, Atom Site MPS 1606477
2013 10 03.31583 02 49 50.11 +22 30 04.7 21.3 V 691 – Steward Observatory, Kitt Peak-Spacewatch MPS 479586
2013 10 03.33407 02 49 49.50 +22 30 03.9 20.8 V 691 – Steward Observatory, Kitt Peak-Spacewatch MPS 479586
2013 10 03.35254 02 49 48.90 +22 30 03.7 21.0 V 691 – Steward Observatory, Kitt Peak-Spacewatch MPS 479586
2013 10 26.17653 02 33 13.39 +21 53 25.2 21.2 V 691 – Steward Observatory, Kitt Peak-Spacewatch MPS 484756
2013 10 26.19775 02 33 12.29 +21 53 21.8 20.5 V 691 – Steward Observatory, Kitt Peak-Spacewatch MPS 484756
2013 10 26.21550 02 33 11.34 +21 53 18.9 20.6 V 691 – Steward Observatory, Kitt Peak-Spacewatch MPS 484756
2013 10 30.34291 02 29 37.810 +21 40 47.66 20.7 w F51 – Pan-STARRS 1, Haleakala MPS 484756
2013 10 30.47838 02 29 30.539 +21 40 21.58 20.7 w F51 – Pan-STARRS 1, Haleakala MPS 484756
2013 10 30.49273 02 29 29.777 +21 40 18.87 20.6 w F51 – Pan-STARRS 1, Haleakala MPS 484756
2013 10 31.31977 02 28 46.69 +21 37 36.6 20.0 V G96 – Mt. Lemmon Survey MPS 484756
2013 10 31.32828 02 28 46.23 +21 37 34.6 20.1 V G96 – Mt. Lemmon Survey MPS 484756
2013 10 31.33678 02 28 45.80 +21 37 33.1 20.2 V G96 – Mt. Lemmon Survey MPS 484756
2013 10 31.34531 02 28 45.39 +21 37 31.3 20.2 V G96 – Mt. Lemmon Survey MPS 484756
2013 11 12.08984 02 18 46.23 +20 54 38.7 20.9 V 691 – Steward Observatory, Kitt Peak-Spacewatch MPS 488064
2013 11 12.10757 02 18 45.39 +20 54 34.5 20.9 V 691 – Steward Observatory, Kitt Peak-Spacewatch MPS 488064
2013 11 12.14154 02 18 43.68 +20 54 26.8 20.7 V 691 – Steward Observatory, Kitt Peak-Spacewatch MPS 488064
2014 12 26.53005 07 57 41.551 +26 23 25.69 21.1 w F51 – Pan-STARRS 1, Haleakala MPS 559698
2014 12 26.54235 07 57 40.956 +26 23 27.36 20.9 w F51 – Pan-STARRS 1, Haleakala MPS 559698
2014 12 26.55472 07 57 40.361 +26 23 28.85 20.8 w F51 – Pan-STARRS 1, Haleakala MPS 559698
2014 12 26.56707 07 57 39.771 +26 23 30.43 20.8 w F51 – Pan-STARRS 1, Haleakala MPS 559698
2015 01 18.29552 07 37 13.708 +27 01 10.69 20.5 w F51 – Pan-STARRS 1, Haleakala MPS 566040
2015 01 18.30878 07 37 12.948 +27 01 11.62 20.7 w F51 – Pan-STARRS 1, Haleakala MPS 566040
2015 01 18.32204 07 37 12.183 +27 01 12.46 20.7 w F51 – Pan-STARRS 1, Haleakala MPS 566040
2015 01 18.33537 07 37 11.404 +27 01 13.22 20.7 w F51 – Pan-STARRS 1, Haleakala MPS 566040
2015 01 18.34285 07 37 10.80 +27 01 12.6 20.5 r G45 – Space Surveillance Telescope, Atom Site MPS 578010
2015 01 18.34703 07 37 10.50 +27 01 13.2 20.7 r G45 – Space Surveillance Telescope, Atom Site MPS 578010
2015 01 18.36408 07 37 09.53 +27 01 14.0 20.2 r G45 – Space Surveillance Telescope, Atom Site MPS 578010
2015 01 18.37260 07 37 09.03 +27 01 14.9 20.4 r G45 – Space Surveillance Telescope, Atom Site MPS 578010
2015 01 20.33358 07 35 18.682 +27 03 03.28 20.5 w F51 – Pan-STARRS 1, Haleakala MPS 566040
2015 01 20.34550 07 35 17.998 +27 03 03.94 20.7 w F51 – Pan-STARRS 1, Haleakala MPS 566040
